| time (UTC) | temp F | wind direction | speed knots | gust knots | rain 1hr in | rain 24hr in | rain mn in | humidity % | barometer mb |
| 20260510173553 | 60 | 277 | 0.9 | 2.6 | 0.00 | 0.00 | 0.00 | 74 | 1019.0 |
| 20260510172551 | 59 | 233 | 0.9 | 1.7 | 0.00 | 0.00 | 0.00 | 77 | 1019.4 |
| 20260510171549 | 59 | 224 | 1.7 | 3.5 | 0.00 | 0.00 | 0.00 | 77 | 1019.0 |
| 20260510170609 | 58 | 256 | 1.7 | 5.2 | 0.00 | 0.00 | 0.00 | 78 | 1019.0 |
| 20260510165546 | 58 | 249 | 0.9 | 2.6 | 0.00 | 0.00 | 0.00 | 78 | 1019.0 |
| 20260510164544 | 57 | 245 | 1.7 | 3.5 | 0.00 | 0.00 | 0.00 | 78 | 1019.1 |
| 20260510163543 | 58 | 251 | 0.9 | 2.6 | 0.00 | 0.00 | 0.00 | 79 | 1018.9 |
| 20260510162541 | 58 | 235 | 1.7 | 6.1 | 0.00 | 0.00 | 0.00 | 80 | 1018.6 |
| 20260510161620 | 57 | 154 | 2.6 | 5.2 | 0.00 | 0.00 | 0.00 | 81 | 1018.2 |
| 20260510160558 | 56 | 152 | 1.7 | 3.5 | 0.00 | 0.00 | 0.00 | 82 | 1018.3 |
| 20260510155556 | 56 | 239 | 1.7 | 5.2 | 0.00 | 0.00 | 0.00 | 82 | 1018.2 |
| 20260510154554 | 56 | 243 | 1.7 | 2.6 | 0.00 | 0.00 | 0.00 | 82 | 1018.2 |
| 20260510153552 | 55 | 236 | 0.9 | 2.6 | 0.00 | 0.00 | 0.00 | 82 | 1017.8 |
| 20260510152531 | 56 | 275 | 0.9 | 3.5 | 0.00 | 0.00 | 0.00 | 83 | 1018.1 |
| 20260510151529 | 55 | 231 | 1.7 | 5.2 | 0.00 | 0.00 | 0.00 | 84 | 1018.1 |
| 20260510150527 | 55 | 239 | 0.9 | 1.7 | 0.00 | 0.00 | 0.00 | 84 | 1017.8 |
| 20260510145526 | 55 | 233 | 1.7 | 3.5 | 0.00 | 0.00 | 0.00 | 87 | 1018.0 |
| 20260510144524 | 53 | 284 | 0.9 | 2.6 | 0.00 | 0.00 | 0.00 | 86 | 1017.8 |
| 20260510143522 | 53 | 15 | 0.0 | 0.9 | 0.00 | 0.00 | 0.00 | 87 | 1017.7 |
| 20260510142520 | 53 | 249 | 0.9 | 2.6 | 0.00 | 0.00 | 0.00 | 88 | 1018.1 |
| 20260510141518 | 52 | 227 | 1.7 | 5.2 | 0.00 | 0.00 | 0.00 | 89 | 1018.3 |
| 20260510140517 | 52 | 247 | 1.7 | 3.5 | 0.00 | 0.00 | 0.00 | 89 | 1018.0 |
| 20260510135615 | 51 | 248 | 0.0 | 1.7 | 0.00 | 0.00 | 0.00 | 90 | 1017.3 |
| 20260510134613 | 51 | 248 | 0.0 | 0.9 | 0.00 | 0.00 | 0.00 | 90 | 1017.0 |
| 20260510133612 | 50 | 248 | 0.0 | 0.9 | 0.00 | 0.00 | 0.00 | 90 | 1017.3 |
| 20260510132610 | 50 | 0.0 | 0.0 | 0.00 | 0.00 | 0.00 | 90 | 1017.5 | |
| 20260510131609 | 50 | 248 | 0.0 | 0.9 | 0.00 | 0.00 | 0.00 | 90 | 1017.9 |
| 20260510130627 | 49 | 0.0 | 0.0 | 0.00 | 0.00 | 0.00 | 90 | 1017.9 | |
| 20260510125645 | 49 | 0.0 | 0.0 | 0.00 | 0.00 | 0.00 | 89 | 1018.0 | |
| 20260510124704 | 49 | 0.0 | 0.0 | 0.00 | 0.00 | 0.00 | 89 | 1018.0 | |
| 20260510123602 | 48 | 234 | 0.9 | 1.7 | 0.00 | 0.00 | 0.00 | 88 | 1018.0 |
| 20260510122641 | 49 | 233 | 0.0 | 0.9 | 0.00 | 0.00 | 0.00 | 88 | 1017.9 |
| 20260510121559 | 49 | 257 | 0.0 | 0.9 | 0.00 | 0.00 | 0.00 | 88 | 1017.7 |
| 20260510120557 | 49 | 0.0 | 0.0 | 0.00 | 0.00 | 0.00 | 87 | 1017.6 | |
| 20260510115555 | 49 | 265 | 0.0 | 0.9 | 0.00 | 0.00 | 0.00 | 87 | 1017.5 |
| 20260510114553 | 49 | 0.0 | 0.0 | 0.00 | 0.00 | 0.00 | 87 | 1017.4 | |
| 20260510113551 | 49 | 0.0 | 0.0 | 0.00 | 0.00 | 0.00 | 87 | 1017.4 | |
| 20260510112549 | 49 | 0.0 | 0.0 | 0.00 | 0.00 | 0.00 | 86 | 1017.6 | |
| 20260510111548 | 49 | 282 | 0.0 | 0.9 | 0.00 | 0.00 | 0.00 | 85 | 1017.8 |
| 20260510110546 | 50 | 0.0 | 0.0 | 0.00 | 0.00 | 0.00 | 85 | 1017.6 | |
| 20260510105544 | 50 | 0.0 | 0.0 | 0.00 | 0.00 | 0.00 | 84 | 1017.5 | |
| 20260510104543 | 51 | 0.0 | 0.0 | 0.00 | 0.00 | 0.00 | 84 | 1017.2 | |
| 20260510103541 | 51 | 0.0 | 0.0 | 0.00 | 0.00 | 0.00 | 84 | 1017.1 | |
| 20260510102559 | 51 | 282 | 0.0 | 0.9 | 0.00 | 0.00 | 0.00 | 84 | 1016.9 |
| 20260510101537 | 52 | 283 | 0.0 | 0.9 | 0.00 | 0.00 | 0.00 | 83 | 1016.9 |
| 20260510100536 | 52 | 253 | 0.0 | 0.9 | 0.00 | 0.00 | 0.00 | 83 | 1016.9 |
| 20260510095534 | 52 | 276 | 0.0 | 1.7 | 0.00 | 0.00 | 0.00 | 84 | 1016.9 |
| 20260510094533 | 52 | 285 | 0.0 | 0.9 | 0.00 | 0.00 | 0.00 | 84 | 1016.8 |
| 20260510093530 | 51 | 285 | 0.0 | 0.9 | 0.00 | 0.00 | 0.00 | 83 | 1016.6 |
| 20260510092529 | 51 | 0.0 | 0.0 | 0.00 | 0.00 | 0.00 | 82 | 1016.5 | |
| 20260510091548 | 51 | 0.0 | 0.0 | 0.00 | 0.00 | 0.00 | 83 | 1016.5 | |
| 20260510090526 | 51 | 285 | 0.0 | 0.9 | 0.00 | 0.00 | 0.00 | 83 | 1016.4 |
| 20260510085524 | 51 | 0.0 | 0.0 | 0.00 | 0.00 | 0.00 | 82 | 1016.5 | |
| 20260510084522 | 51 | 285 | 0.0 | 0.9 | 0.00 | 0.00 | 0.00 | 82 | 1016.4 |
| 20260510083520 | 51 | 318 | 0.0 | 0.9 | 0.00 | 0.00 | 0.00 | 81 | 1016.4 |
| 20260510082518 | 51 | 318 | 0.0 | 0.9 | 0.00 | 0.00 | 0.00 | 81 | 1016.3 |
| 20260510081518 | 52 | 0.0 | 0.0 | 0.00 | 0.00 | 0.00 | 80 | 1016.1 | |
| 20260510080615 | 52 | 0.0 | 0.0 | 0.00 | 0.00 | 0.00 | 79 | 1016.2 | |
| 20260510075614 | 52 | 0.0 | 0.0 | 0.00 | 0.00 | 0.00 | 79 | 1016.3 | |
| 20260510074612 | 53 | 0.0 | 0.0 | 0.00 | 0.00 | 0.00 | 79 | 1016.2 | |
| 20260510073610 | 53 | 0.0 | 0.0 | 0.00 | 0.00 | 0.00 | 77 | 1016.1 | |
| 20260510072608 | 53 | 0.0 | 0.0 | 0.00 | 0.00 | 0.00 | 77 | 1016.1 | |
| 20260510071608 | 54 | 0.0 | 0.0 | 0.00 | 0.00 | 0.00 | 75 | 1016.0 | |
| 20260510070625 | 54 | 0.0 | 0.0 | 0.00 | 0.00 | 0.00 | 75 | 1016.3 | |
| 20260510065603 | 55 | 0.0 | 0.0 | 0.00 | 0.00 | 0.00 | 74 | 1016.2 | |
| 20260510064601 | 55 | 0.0 | 0.0 | 0.00 | 0.00 | 0.00 | 73 | 1016.3 | |
| 20260510063559 | 56 | 0.0 | 0.0 | 0.00 | 0.00 | 0.00 | 72 | 1016.3 | |
| 20260510062558 | 57 | 0.0 | 0.0 | 0.00 | 0.00 | 0.00 | 72 | 1016.3 | |
| 20260510061556 | 57 | 0.0 | 0.0 | 0.00 | 0.00 | 0.00 | 71 | 1016.4 | |
| 20260510060555 | 58 | 0.0 | 0.0 | 0.00 | 0.00 | 0.00 | 70 | 1016.3 | |
| 20260510055553 | 58 | 0.0 | 0.0 | 0.00 | 0.00 | 0.00 | 69 | 1016.1 | |
| 20260510054551 | 59 | 320 | 0.0 | 0.9 | 0.00 | 0.00 | 0.00 | 69 | 1016.3 |
| 20260510053549 | 59 | 320 | 0.0 | 0.9 | 0.00 | 0.00 | 0.00 | 68 | 1016.2 |
| 20260510052608 | 59 | 320 | 0.0 | 0.9 | 0.00 | 0.00 | 0.00 | 68 | 1016.3 |
| 20260510051546 | 59 | 0.0 | 0.0 | 0.00 | 0.00 | 0.00 | 68 | 1016.2 | |
| 20260510050544 | 59 | 336 | 0.0 | 0.9 | 0.00 | 0.00 | 0.00 | 68 | 1016.1 |
| 20260510045542 | 59 | 0.0 | 0.0 | 0.00 | 0.00 | 0.00 | 68 | 1016.1 | |
| 20260510044540 | 60 | 0.0 | 0.0 | 0.00 | 0.00 | 0.00 | 67 | 1016.2 | |
| 20260510043539 | 60 | 337 | 0.0 | 0.9 | 0.00 | 0.00 | 0.00 | 66 | 1016.2 |
| 20260510042537 | 60 | 0.0 | 0.0 | 0.00 | 0.00 | 0.00 | 65 | 1016.2 | |
| 20260510041535 | 61 | 307 | 0.0 | 1.7 | 0.00 | 0.00 | 0.00 | 65 | 1016.2 |
| 20260510040554 | 61 | 328 | 0.0 | 1.7 | 0.00 | 0.00 | 0.00 | 64 | 1016.1 |
| 20260510035532 | 61 | 349 | 0.9 | 1.7 | 0.00 | 0.00 | 0.00 | 64 | 1016.0 |
| 20260510034530 | 62 | 340 | 0.9 | 1.7 | 0.00 | 0.00 | 0.00 | 62 | 1015.9 |
| 20260510033529 | 62 | 348 | 0.9 | 2.6 | 0.00 | 0.00 | 0.00 | 62 | 1016.0 |
| 20260510032527 | 63 | 348 | 1.7 | 3.5 | 0.00 | 0.00 | 0.00 | 60 | 1015.9 |
| 20260510031525 | 63 | 353 | 0.9 | 2.6 | 0.00 | 0.00 | 0.00 | 59 | 1016.0 |
| 20260510030524 | 64 | 352 | 1.7 | 2.6 | 0.00 | 0.00 | 0.00 | 58 | 1016.0 |
| 20260510025522 | 64 | 328 | 0.9 | 1.7 | 0.00 | 0.00 | 0.00 | 57 | 1016.1 |
| 20260510024520 | 65 | 328 | 0.9 | 0.9 | 0.00 | 0.00 | 0.00 | 55 | 1016.1 |
| 20260510023519 | 65 | 326 | 0.9 | 1.7 | 0.00 | 0.00 | 0.00 | 54 | 1016.3 |
| 20260510022517 | 66 | 8 | 1.7 | 2.6 | 0.00 | 0.00 | 0.00 | 53 | 1016.4 |
| 20260510021615 | 66 | 343 | 1.7 | 3.5 | 0.00 | 0.00 | 0.00 | 52 | 1016.4 |
| 20260510020613 | 67 | 348 | 0.0 | 0.9 | 0.00 | 0.00 | 0.00 | 51 | 1016.4 |
| 20260510015612 | 67 | 347 | 1.7 | 2.6 | 0.00 | 0.00 | 0.00 | 49 | 1016.6 |
| 20260510014610 | 67 | 345 | 1.7 | 2.6 | 0.00 | 0.00 | 0.00 | 48 | 1016.6 |
| 20260510013608 | 68 | 350 | 0.9 | 2.6 | 0.00 | 0.00 | 0.00 | 51 | 1017.0 |
| 20260510012607 | 68 | 308 | 0.9 | 2.6 | 0.00 | 0.00 | 0.00 | 49 | 1017.1 |
| 20260510011626 | 69 | 6 | 0.9 | 2.6 | 0.00 | 0.00 | 0.00 | 50 | 1017.2 |
| 20260510010623 | 69 | 359 | 1.7 | 5.2 | 0.00 | 0.00 | 0.00 | 50 | 1017.3 |
| 20260510005622 | 69 | 330 | 0.9 | 3.5 | 0.00 | 0.00 | 0.00 | 50 | 1017.3 |
| 20260510004600 | 69 | 349 | 0.9 | 2.6 | 0.00 | 0.00 | 0.00 | 50 | 1017.2 |
| 20260510003558 | 69 | 7 | 0.9 | 2.6 | 0.00 | 0.00 | 0.00 | 50 | 1017.6 |
| 20260510002622 | 69 | 2 | 0.9 | 2.6 | 0.00 | 0.00 | 0.00 | 51 | 1017.6 |
| 20260510001555 | 69 | 16 | 2.6 | 3.5 | 0.00 | 0.00 | 0.00 | 51 | 1017.6 |
| 20260510000553 | 69 | 347 | 1.7 | 3.5 | 0.00 | 0.00 | 0.00 | 51 | 1017.8 |
| 20260509235552 | 69 | 8 | 2.6 | 6.1 | 0.00 | 0.00 | 0.00 | 51 | 1017.8 |
| 20260509234549 | 69 | 309 | 0.9 | 2.6 | 0.00 | 0.00 | 0.00 | 53 | 1018.1 |
| 20260509233547 | 69 | 343 | 0.9 | 2.6 | 0.00 | 0.00 | 0.00 | 53 | 1018.1 |
| 20260509232546 | 69 | 4 | 0.9 | 2.6 | 0.00 | 0.00 | 0.00 | 55 | 1018.1 |
| 20260509231544 | 68 | 5 | 1.7 | 5.2 | 0.00 | 0.00 | 0.00 | 54 | 1018.3 |
| 20260509230543 | 68 | 344 | 2.6 | 5.2 | 0.00 | 0.00 | 0.00 | 54 | 1018.3 |
| 20260509225541 | 69 | 6 | 2.6 | 6.1 | 0.00 | 0.00 | 0.00 | 55 | 1018.6 |
| 20260509224539 | 68 | 355 | 1.7 | 6.1 | 0.00 | 0.00 | 0.00 | 55 | 1018.8 |
| 20260509223538 | 68 | 354 | 3.5 | 6.1 | 0.00 | 0.00 | 0.00 | 54 | 1018.8 |
| 20260509222536 | 69 | 319 | 1.7 | 5.2 | 0.00 | 0.00 | 0.00 | 55 | 1019.2 |
| 20260509221534 | 69 | 12 | 2.6 | 6.1 | 0.00 | 0.00 | 0.00 | 52 | 1019.0 |
| 20260509220532 | 68 | 336 | 0.9 | 5.2 | 0.00 | 0.00 | 0.00 | 54 | 1019.3 |
| 20260509215530 | 68 | 359 | 2.6 | 6.1 | 0.00 | 0.00 | 0.00 | 52 | 1019.2 |
| 20260509214549 | 68 | 6 | 2.6 | 7.0 | 0.00 | 0.00 | 0.00 | 51 | 1019.2 |
| 20260509213527 | 68 | 6 | 1.7 | 5.2 | 0.00 | 0.00 | 0.00 | 51 | 1019.2 |
| 20260509212546 | 68 | 354 | 0.9 | 3.5 | 0.00 | 0.00 | 0.00 | 51 | 1019.6 |
| 20260509211524 | 68 | 30 | 1.7 | 3.5 | 0.00 | 0.00 | 0.00 | 53 | 1019.4 |
| 20260509210522 | 68 | 4 | 3.5 | 7.0 | 0.00 | 0.00 | 0.00 | 53 | 1019.5 |
| 20260509205521 | 68 | 341 | 1.7 | 6.1 | 0.00 | 0.00 | 0.00 | 55 | 1019.5 |
| 20260509204519 | 68 | 357 | 1.7 | 5.2 | 0.00 | 0.00 | 0.00 | 54 | 1019.7 |
| 20260509203537 | 67 | 315 | 0.9 | 1.7 | 0.00 | 0.00 | 0.00 | 56 | 1019.7 |
| 20260509202615 | 66 | 324 | 1.7 | 3.5 | 0.00 | 0.00 | 0.00 | 56 | 1019.8 |
| 20260509201614 | 66 | 354 | 1.7 | 5.2 | 0.00 | 0.00 | 0.00 | 57 | 1019.9 |
| 20260509200612 | 66 | 337 | 1.7 | 5.2 | 0.00 | 0.00 | 0.00 | 57 | 1020.0 |
| 20260509195610 | 66 | 3 | 1.7 | 7.0 | 0.00 | 0.00 | 0.00 | 60 | 1020.2 |
| 20260509194629 | 65 | 356 | 2.6 | 7.0 | 0.00 | 0.00 | 0.00 | 59 | 1020.4 |
| 20260509193607 | 65 | 345 | 1.7 | 3.5 | 0.00 | 0.00 | 0.00 | 60 | 1020.5 |
| 20260509192625 | 64 | 357 | 2.6 | 6.1 | 0.00 | 0.00 | 0.00 | 60 | 1020.6 |
| 20260509191603 | 64 | 20 | 2.6 | 7.8 | 0.00 | 0.00 | 0.00 | 61 | 1020.7 |
| 20260509190601 | 63 | 346 | 2.6 | 5.2 | 0.00 | 0.00 | 0.00 | 61 | 1020.8 |
| 20260509185619 | 63 | 2 | 3.5 | 5.2 | 0.00 | 0.00 | 0.00 | 61 | 1020.9 |
| 20260509184618 | 63 | 351 | 3.5 | 7.0 | 0.00 | 0.00 | 0.00 | 62 | 1020.9 |
| 20260509183556 | 62 | 359 | 3.5 | 6.1 | 0.00 | 0.00 | 0.00 | 66 | 1020.9 |
| 20260509182554 | 62 | 8 | 3.5 | 7.8 | 0.00 | 0.00 | 0.00 | 66 | 1020.9 |
| 20260509181612 | 62 | 1 | 4.3 | 7.0 | 0.00 | 0.00 | 0.00 | 66 | 1020.9 |
| 20260509180611 | 62 | 2 | 3.5 | 7.0 | 0.00 | 0.00 | 0.00 | 68 | 1021.0 |
| 20260509175608 | 62 | 340 | 0.9 | 3.5 | 0.00 | 0.00 | 0.00 | 69 | 1021.1 |
| 20260509174547 | 61 | 10 | 3.5 | 6.1 | 0.00 | 0.00 | 0.00 | 70 | 1021.2 |